Huntsville, AL

4:50 AM CST on November 19, 2017 (GMT -0600)
Huntsville International

Weather History for KHSV - April, 2015

Change the Weather History Date:

Thursday, April 2, 2015

  Actual Average Record
Temperature  
Mean Temperature 71 °F 58 °F  
Max Temperature 79 °F 70 °F 86 °F (1963)
Min Temperature 63 °F 46 °F 25 °F (1924)
Degree Days  
Heating Degree Days 0 8  
Month to date heating degree days 0 16  
Since 1 July heating degree days 2948 2836  
Cooling Degree Days 6 1  
Month to date cooling degree days 6 2  
Year to date cooling degree days 8 16  
Growing Degree Days 21 (Base 50)    
Moisture  
Dew Point 60 °F    
Average Humidity 70    
Maximum Humidity 84    
Minimum Humidity 56    
Precipitation  
Precipitation T in 0.15 in 2.47 in (1920)
Month to date precipitation T 0.31  
Year to date precipitation 13.36 15.25  
Snow  
Snow 0.00 in - - ()
Month to date snowfall 0.0  
Since 1 July snowfall 9.8  
Snow Depth 0.00 in    
Sea Level Pressure  
Sea Level Pressure 30.04 in    
Wind  
Wind Speed 10 mph (South)    
Max Wind Speed 23 mph    
Max Gust Speed 31 mph    
Visibility 10 miles    
Events Rain , Thunderstorm    
T = Trace of Precipitation, MM = Missing Value Source: NWS Daily Summary

Daily Weather History Graph

Daily Weather History Graph

Search for Another Location

Airport or City:

Trip Planner

Search our weather history database for the weather conditions in past years. The results will help you decide how hot, cold, wet, or windy it might be!

Date:

Astronomy

Apr. 02, 2015 Rise Set
Actual Time 6:33 AM CDT 7:08 PM CDT
Civil Twilight 6:07 AM CDT 7:34 PM CDT
Nautical Twilight 5:37 AM CDT 8:04 PM CDT
Astronomical Twilight 5:07 AM CDT 8:34 PM CDT
Moon 5:45 PM CDT (4/2) 5:30 AM CDT (4/2)
Length of Visible Light 13h 26m
Length of Day
12h 35m
Waxing Gibbous, 97% of the Moon is Illuminated
Apr 2
Waxing Gibbous
Apr 4
Full
Apr 11
Last Quarter
Apr 18
New
Apr 25
First Quarter

Hourly Weather History & Observations

Time (CDT) Temp. Dew Point Humidity Pressure Visibility Wind Dir Wind Speed Gust Speed Precip Events Conditions
12:53 AM 66.0 °F 55.0 °F 68% 30.02 in 10.0 mi SSE 8.1 mph - N/A   Overcast
1:53 AM 64.9 °F 54.0 °F 68% 30.01 in 10.0 mi SSE 5.8 mph - N/A   Clear
2:53 AM 64.0 °F 55.0 °F 73% 30.01 in 10.0 mi SSE 5.8 mph - N/A   Mostly Cloudy
3:53 AM 66.0 °F 55.9 °F 70% 30.01 in 10.0 mi SSE 5.8 mph - N/A   Overcast
4:53 AM 63.0 °F 55.9 °F 78% 30.03 in 10.0 mi South 5.8 mph - N/A   Mostly Cloudy
5:53 AM 64.0 °F 57.0 °F 78% 30.04 in 10.0 mi South 8.1 mph - N/A   Mostly Cloudy
6:53 AM 64.9 °F 59.0 °F 81% 30.06 in 10.0 mi South 6.9 mph - N/A   Mostly Cloudy
7:53 AM 68.0 °F 61.0 °F 78% 30.07 in 10.0 mi South 8.1 mph - N/A   Mostly Cloudy
8:53 AM 70.0 °F 62.1 °F 76% 30.08 in 10.0 mi South 8.1 mph - N/A   Mostly Cloudy
9:22 AM 71.1 °F 62.1 °F 73% 30.10 in 10.0 mi SSW 6.9 mph - N/A   Mostly Cloudy
9:37 AM 72.0 °F 63.0 °F 73% 30.10 in 10.0 mi South 9.2 mph - N/A   Mostly Cloudy
9:53 AM 73.0 °F 63.0 °F 71% 30.09 in 10.0 mi SSW 10.4 mph - N/A   Mostly Cloudy
10:53 AM 75.0 °F 62.1 °F 64% 30.09 in 10.0 mi SW 15.0 mph - N/A   Mostly Cloudy
11:53 AM 72.0 °F 61.0 °F 68% 30.10 in 10.0 mi SW 12.7 mph - 0.00 in   Overcast
12:53 PM 73.0 °F 61.0 °F 66% 30.09 in 10.0 mi SSW 12.7 mph - N/A   Overcast
1:44 PM 73.9 °F 63.0 °F 68% 30.07 in 10.0 mi SSW 9.2 mph - 0.00 in Rain , Thunderstorm Light Rain
1:53 PM 75.0 °F 63.0 °F 66% 30.05 in 10.0 mi South 12.7 mph - 0.00 in Thunderstorm Mostly Cloudy
2:01 PM 75.9 °F 62.1 °F 62% 30.06 in 10.0 mi SSW 13.8 mph - N/A   Mostly Cloudy
2:32 PM 75.9 °F 62.1 °F 62% 30.04 in 10.0 mi SSW 12.7 mph - N/A   Overcast
2:33 PM 77.0 °F 62.1 °F 60% 30.04 in 10.0 mi SSW 12.7 mph - N/A   Mostly Cloudy
2:53 PM 77.0 °F 61.0 °F 58% 30.01 in 10.0 mi SSW 15.0 mph 20.7 mph N/A   Mostly Cloudy
3:26 PM 75.9 °F 61.0 °F 60% 30.01 in 10.0 mi South 17.3 mph 25.3 mph N/A Thunderstorm Thunderstorm
3:53 PM 75.0 °F 60.1 °F 60% 29.99 in 10.0 mi SSW 11.5 mph - N/A   Overcast
4:53 PM 75.9 °F 59.0 °F 56% 30.00 in 10.0 mi SW 18.4 mph 31.1 mph 0.00 in   Overcast
5:53 PM 75.9 °F 59.0 °F 56% 30.00 in 10.0 mi SW 15.0 mph - N/A   Mostly Cloudy
6:53 PM 73.9 °F 59.0 °F 59% 30.00 in 10.0 mi South 11.5 mph - N/A   Mostly Cloudy
7:53 PM 72.0 °F 62.1 °F 71% 30.01 in 10.0 mi SSE 9.2 mph - N/A   Mostly Cloudy
8:53 PM 70.0 °F 62.1 °F 76% 30.02 in 10.0 mi SE 6.9 mph - N/A   Mostly Cloudy
9:53 PM 68.0 °F 62.1 °F 81% 30.02 in 10.0 mi SE 5.8 mph - N/A   Scattered Clouds
10:53 PM 69.1 °F 60.1 °F 73% 30.01 in 10.0 mi SSE 11.5 mph - N/A   Partly Cloudy
11:53 PM 70.0 °F 57.9 °F 65% 30.01 in 10.0 mi South 11.5 mph - N/A   Scattered Clouds